Stations météo

Publicité
Abbeville, France (7005): Température de l'air & dewpoint: 20.05.2018 23:00:00 - 26.05.2018 23:00:00 (CEST)Abbeville, France (7005): Température de l'air 5cm: 20.05.2018 23:00:00 - 26.05.2018 23:00:00 (CEST)Abbeville, France (7005): Température de l'air -20cm & Température de l'air -100cm: 20.05.2018 23:00:00 - 26.05.2018 23:00:00 (CEST)Abbeville, France (7005): Vitesse du vent & gusts: 20.05.2018 23:00:00 - 26.05.2018 23:00:00 (CEST)Abbeville, France (7005): Direction du vent: 20.05.2018 23:00:00 - 26.05.2018 23:00:00 (CEST)Abbeville, France (7005): reduced air pressure: 20.05.2018 23:00:00 - 26.05.2018 23:00:00 (CEST)Abbeville, France (7005): visibility: 20.05.2018 23:00:00 - 26.05.2018 23:00:00 (CEST)Abbeville, France (7005): Ensoleillement: 20.05.2018 23:00:00 - 26.05.2018 23:00:00 (CEST)Abbeville, France (7005): Quantités de précipitations: 20.05.2018 23:00:00 - 26.05.2018 23:00:00 (CEST)
Date & Time tt [°C] td [°C] tt 5cm [°C] tt -20cm [°C] tt -100cm [°C] ff [km/h] ff [knt] fx [km/h] fx [knt] dd ppp [hPa] vv [km] sd [min] rr [mm]
26.05.2018 23:00:00 21,8 18,4 - - - 8 4 22 12 E 1016,2 20 0 -
26.05.2018 22:00:00 22,4 18,8 21,2 18,8 13,0 10 5 16 9 ENE 1015,4 19 0 0,0
26.05.2018 21:00:00 23,4 19,1 22,5 18,8 13,0 11 6 22 12 E 1015,3 20 0 0,0
26.05.2018 20:00:00 24,3 19,4 23,8 18,7 13,0 16 9 23 12 ENE 1014,9 20 0 0,0
26.05.2018 19:00:00 25,6 18,5 25,5 18,5 13,0 14 8 31 17 E 1015,1 20 21 0,0
26.05.2018 18:00:00 26,4 18,5 27,5 18,3 13,0 17 9 35 19 E 1015,2 20 19 0,0
26.05.2018 17:00:00 26,7 16,6 27,9 18,0 13,0 27 15 48 26 E 1015,2 20 37 0,0
26.05.2018 16:00:00 27,3 18,0 30,4 17,6 13,0 24 13 43 23 E 1015,3 20 60 0,0
26.05.2018 15:00:00 26,2 19,3 29,7 17,2 13,0 28 15 42 23 E 1015,5 17 60 0,0
26.05.2018 14:00:00 25,3 19,2 28,1 16,8 13,0 24 13 36 19 E 1016,4 8 57 0,0
26.05.2018 13:00:00 24,0 19,1 26,0 16,5 13,0 20 11 29 16 E 1016,7 6 56 0,0
26.05.2018 12:00:00 21,6 17,8 24,2 16,3 13,0 14 8 30 16 E 1017,2 4,0 39 0,0
26.05.2018 11:00:00 20,0 17,6 19,9 16,2 13,0 16 9 28 15 ENE 1017,0 2,5 50 0,0
26.05.2018 10:00:00 17,2 15,9 18,0 16,2 13,0 22 12 31 17 ENE 1017,0 1,7 15 0,0
26.05.2018 09:00:00 16,2 15,4 16,5 16,2 13,0 19 10 31 17 ENE 1017,0 1,3 4 0,0
26.05.2018 08:00:00 15,9 14,8 15,0 16,2 13,0 16 9 24 13 ENE 1017,0 2,2 24 0,0
26.05.2018 07:00:00 15,1 14,1 13,7 16,3 13,0 13 7 19 11 ENE 1016,9 4,8 10 0,0
26.05.2018 06:00:00 14,7 13,7 13,0 16,4 13,0 8 5 11 6 ENE 1016,8 2,1 0 0,0
26.05.2018 05:00:00 15,4 14,3 14,6 16,5 13,0 8 4 26 14 E 1017,0 2,4 0 0,0
26.05.2018 04:00:00 15,4 14,4 14,7 16,6 13,0 13 7 18 10 NE 1016,9 1,8 0 0,0
26.05.2018 03:00:00 15,4 14,4 14,9 16,6 12,9 9 5 17 9 NE 1017,6 1,6 0 0,0
26.05.2018 02:00:00 15,6 14,6 15,0 16,8 12,9 13 7 23 13 ENE 1017,9 1,7 0 0,2
26.05.2018 01:00:00 15,9 15,1 15,4 16,9 12,9 15 8 22 12 ENE 1018,3 1,4 0 1,0
26.05.2018 00:00:00 15,7 14,9 14,7 17,0 12,9 11 6 14 8 NE 1018,4 1,6 0 2,6
25.05.2018 23:00:00 15,3 14,3 14,3 17,0 12,9 5 3 10 5 ESE 1018,5 2,1 0 1,2
25.05.2018 22:00:00 15,2 13,9 14,5 17,1 12,9 6 3 15 8 W 1018,5 2,7 0 0,0
25.05.2018 21:00:00 16,2 14,9 15,8 17,1 12,9 7 4 12 6 W 1017,7 2,9 0 0,0
25.05.2018 20:00:00 17,1 15,3 16,9 17,0 12,9 6 4 11 6 W 1017,7 3,3 0 0,0
25.05.2018 19:00:00 18,3 15,4 19,9 16,8 12,9 8 4 13 7 N 1017,4 5 0 0,0
25.05.2018 18:00:00 18,6 15,5 21,9 16,6 12,9 9 5 14 8 N 1017,5 6 0 0,0
25.05.2018 17:00:00 18,6 15,1 24,3 16,3 12,9 6 4 12 6 N 1017,7 7 6 0,0
25.05.2018 16:00:00 18,5 15,4 22,9 16,1 12,9 6 4 11 6 NNW 1018,2 6 12 0,0
25.05.2018 15:00:00 16,7 14,0 22,0 16,0 12,9 0 0 13 7 N 1018,4 5 0 0,0
25.05.2018 14:00:00 15,1 13,6 18,1 15,8 12,9 6 4 10 5 NW 1018,5 3,5 0 0,0
25.05.2018 13:00:00 14,2 13,2 17,8 15,7 12,9 3 1 9 5 WSW 1018,6 2,9 0 0,0
25.05.2018 12:00:00 13,5 12,9 16,5 15,6 12,9 4 2 9 5 NE 1018,6 2,3 0 0,0
25.05.2018 11:00:00 13,0 12,5 14,8 15,6 12,9 0 0 10 5 N 1018,6 0,5 0 0,0
25.05.2018 10:00:00 12,7 12,2 13,8 15,6 12,9 6 3 11 6 W 1018,0 0,3 0 0,0
25.05.2018 09:00:00 12,7 12,2 13,1 15,6 12,9 6 3 13 7 W 1018,1 0,3 0 0,2
25.05.2018 08:00:00 12,4 11,9 12,4 15,7 12,9 4 2 9 5 WSW 1017,9 0,2 0 0,0
25.05.2018 07:00:00 12,3 11,8 12,0 15,8 12,9 4 2 10 5 WSW 1017,8 0,1 0 0,0
25.05.2018 06:00:00 11,9 11,4 11,5 15,9 12,9 2 1 6 3 SW 1017,1 0,1 0 0,0
25.05.2018 05:00:00 11,5 11,0 11,2 16,0 12,8 4 2 10 5 W 1017,0 0,1 0 0,0
25.05.2018 04:00:00 11,3 10,8 11,1 16,1 12,9 4 2 9 5 WSW 1017,0 0,1 0 0,0
25.05.2018 03:00:00 11,2 10,7 11,1 16,3 12,8 7 4 12 6 WSW 1016,9 0,1 0 0,0
25.05.2018 02:00:00 11,5 11,0 10,3 16,4 12,9 8 4 12 7 WSW 1017,1 0,1 0 0,0
25.05.2018 01:00:00 11,6 10,8 9,6 16,6 12,8 10 5 18 10 W 1017,2 1,2 0 0,2
25.05.2018 00:00:00 11,3 10,4 8,7 16,8 12,8 7 4 13 7 NW 1017,3 1,1 0 0,0
24.05.2018 23:00:00 11,8 10,9 9,6 17,0 12,8 8 4 9 5 W 1017,3 1,0 0 0,0
24.05.2018 22:00:00 12,8 11,7 11,3 17,1 12,8 8 4 19 10 WNW 1017,1 1,8 0 0,0
24.05.2018 21:00:00 14,0 12,7 13,2 17,2 12,8 12 6 21 12 WSW 1016,6 3,0 0 0,0
24.05.2018 20:00:00 14,7 13,6 14,1 17,3 12,8 9 5 27 15 SSW 1016,3 2,5 0 1,2
24.05.2018 19:00:00 14,9 13,1 14,1 17,2 12,8 6 4 22 12 W 1016,4 4,6 0 0,6
24.05.2018 18:00:00 16,4 13,7 15,3 17,0 12,8 16 9 24 13 W 1016,4 7 9 0,2
24.05.2018 17:00:00 19,6 15,3 23,9 16,7 12,8 16 9 24 13 NW 1016,3 15 38 0,0
24.05.2018 16:00:00 19,8 16,2 25,4 16,3 12,8 17 9 24 13 NNW 1016,6 8 19 0,0
24.05.2018 15:00:00 19,7 16,3 26,5 16,0 12,8 10 6 17 9 NNW 1017,2 9 1 0,0
24.05.2018 14:00:00 20,3 16,1 29,3 15,6 12,8 10 6 17 9 NNW 1017,5 14 23 0,0
24.05.2018 13:00:00 19,8 15,2 21,7 15,4 12,8 5 3 11 6 N 1017,8 17 22 0,0
24.05.2018 12:00:00 17,3 15,5 19,8 15,3 12,8 7 4 11 6 N 1018,3 5 0 0,0
24.05.2018 11:00:00 16,5 15,2 16,4 15,2 12,8 3 1 8 5 ENE 1018,5 8 2 0,6
24.05.2018 10:00:00 15,1 14,5 14,9 15,1 12,7 3 2 5 3 N 1018,9 1,7 0 1,4
24.05.2018 09:00:00 14,5 13,9 14,2 15,2 12,8 2 1 4 2 N 1018,8 1,6 0 0,0
24.05.2018 08:00:00 13,6 13,0 13,0 15,2 12,8 4 2 6 3 W 1018,7 1,5 0 0,0
24.05.2018 07:00:00 12,7 12,1 11,7 15,3 12,8 4 2 5 3 NW 1018,8 0,9 0 0,0
24.05.2018 06:00:00 12,5 11,9 11,8 15,4 12,8 3 2 6 3 NNW 1018,6 0,8 0 0,2
24.05.2018 05:00:00 12,5 11,9 12,0 15,4 12,7 5 3 9 5 NW 1018,8 0,7 0 0,0
24.05.2018 04:00:00 12,6 12,0 11,7 15,5 12,7 6 3 7 4 WNW 1018,9 0,9 0 0,0
24.05.2018 03:00:00 12,5 11,7 11,3 15,6 12,7 4 2 6 3 NNW 1019,1 1,0 0 0,0
24.05.2018 02:00:00 12,7 11,9 9,5 15,7 12,7 4 2 10 6 NW 1019,7 1,2 0 0,0
24.05.2018 01:00:00 12,8 11,5 9,5 15,8 12,7 3 2 5 3 NW 1019,7 0,8 0 0,0
24.05.2018 00:00:00 13,9 12,5 11,3 15,9 12,7 3 1 15 8 N 1019,5 4,2 0 0,0
23.05.2018 23:00:00 14,6 13,3 12,8 15,9 12,7 7 4 11 6 N 1019,6 2,4 0 0,0
23.05.2018 22:00:00 15,3 13,8 14,6 15,9 12,7 8 5 12 6 NNW 1019,4 3,5 15 0,0
23.05.2018 21:00:00 15,9 13,4 15,5 15,9 12,7 6 3 9 5 NW 1019,6 4,9 39 0,0
23.05.2018 20:00:00 16,6 13,7 17,7 15,8 12,7 8 5 12 6 NNW 1019,4 7 0 0,0
23.05.2018 19:00:00 16,5 13,6 18,1 15,7 12,7 7 4 15 8 N 1019,5 6 1 0,0
23.05.2018 18:00:00 15,8 13,6 17,0 15,6 12,7 10 5 15 8 N 1019,9 6 0 0,0
23.05.2018 17:00:00 15,4 13,1 17,3 15,5 12,7 10 5 16 9 N 1020,0 6 0 0,0
23.05.2018 16:00:00 14,5 12,7 15,3 15,5 12,7 8 4 16 9 NNE 1020,2 6 0 0,0
23.05.2018 15:00:00 14,0 11,9 15,7 15,5 12,7 9 5 15 8 N 1020,6 5 0 0,0
23.05.2018 14:00:00 13,3 11,7 14,3 15,4 12,7 9 5 17 9 N 1020,8 5 0 0,0
23.05.2018 13:00:00 12,5 10,9 13,2 15,4 12,7 11 6 22 12 N 1021,0 6 0 0,0
23.05.2018 12:00:00 12,2 10,8 12,3 15,5 12,6 15 8 24 13 N 1021,0 6 0 0,0
23.05.2018 11:00:00 12,1 10,7 11,9 15,5 12,7 16 9 25 13 N 1020,7 9 0 0,0
23.05.2018 10:00:00 11,3 10,4 11,3 15,6 12,6 11 6 21 12 N 1020,5 4,9 0 0,2
23.05.2018 09:00:00 11,1 10,2 11,1 15,6 12,6 13 7 21 11 N 1020,1 4,1 0 1,0
23.05.2018 08:00:00 10,9 10,1 9,8 15,9 12,6 11 6 16 9 N 1019,9 6 0 0,2
23.05.2018 07:00:00 9,7 9,2 6,0 16,0 12,6 8 4 11 6 NNW 1019,3 4,1 0 0,0
23.05.2018 06:00:00 8,8 8,0 6,1 16,2 12,6 7 4 11 6 NW 1018,9 3,2 0 0,0
23.05.2018 05:00:00 9,5 8,7 7,0 16,4 12,6 6 3 9 5 NW 1018,6 3,8 0 0,0
23.05.2018 04:00:00 9,5 8,6 7,4 16,7 12,6 7 4 11 6 NNW 1018,4 3,9 0 0,0
23.05.2018 03:00:00 9,7 8,6 7,6 16,9 12,6 7 4 13 7 NW 1018,3 3,7 0 0,0
23.05.2018 02:00:00 10,7 9,0 8,6 17,0 12,6 6 3 13 7 N 1018,0 6 0 0,0
23.05.2018 01:00:00 11,8 9,9 10,6 17,2 12,6 7 4 18 10 NNW 1017,6 8 0 0,0
23.05.2018 00:00:00 12,9 10,1 11,2 17,4 12,6 8 5 19 10 N 1017,3 13 0 0,0
22.05.2018 23:00:00 13,8 11,1 12,1 17,5 12,6 9 5 11 6 NNW 1016,9 13 0 0,0
22.05.2018 22:00:00 14,8 11,0 13,3 17,7 12,6 9 5 18 10 NNW 1016,3 18 5 0,0
22.05.2018 21:00:00 16,7 9,9 15,2 17,7 12,5 13 7 24 13 N 1015,3 20 0 0,0
22.05.2018 20:00:00 18,7 11,0 19,2 17,7 12,6 13 7 25 13 NNW 1015,1 20 13 0,0
22.05.2018 19:00:00 20,0 12,0 21,7 17,6 12,5 16 9 30 16 NNW 1014,5 20 49 0,0
22.05.2018 18:00:00 19,9 13,8 21,2 17,5 12,5 20 11 29 16 NNW 1014,2 20 19 0,0
22.05.2018 17:00:00 20,9 15,2 23,8 17,2 12,5 19 10 26 14 NNW 1013,9 18 38 0,0
22.05.2018 16:00:00 19,1 14,1 21,0 17,0 12,5 14 8 27 14 NW 1014,2 20 4 0,0
22.05.2018 15:00:00 20,5 14,4 26,0 16,7 12,5 17 9 29 16 NNW 1013,9 17 55 0,0
22.05.2018 14:00:00 19,1 15,2 21,8 16,5 12,5 15 8 24 13 WNW 1014,0 15 4 0,0
22.05.2018 13:00:00 18,6 15,1 21,2 16,2 12,5 16 8 27 14 WNW 1013,9 13 3 0,0
22.05.2018 12:00:00 20,3 14,4 28,0 15,9 12,5 8 4 13 7 N 1013,6 17 52 0,0
22.05.2018 11:00:00 19,1 13,1 26,9 15,7 12,5 4 2 13 7 NNW 1013,4 15 60 0,0
22.05.2018 10:00:00 16,5 12,5 22,2 15,7 12,5 8 5 17 9 NNW 1013,6 10 60 0,0
22.05.2018 09:00:00 14,3 11,6 15,9 15,7 12,5 11 6 16 8 NNW 1013,5 6 26 0,0
22.05.2018 08:00:00 13,1 11,7 13,4 15,8 12,5 8 4 13 7 W 1013,1 4,4 42 0,0
22.05.2018 07:00:00 12,2 11,3 10,6 16,0 12,5 7 4 10 6 W 1012,7 2,7 35 0,0
22.05.2018 06:00:00 11,6 10,3 10,5 16,1 12,5 6 3 12 6 W 1012,6 2,8 0 0,0
22.05.2018 05:00:00 11,8 10,2 10,8 16,3 12,5 8 4 14 8 W 1012,2 3,2 0 0,0
22.05.2018 04:00:00 11,9 10,5 11,2 16,4 12,5 10 6 15 8 WNW 1012,3 2,4 0 0,0
22.05.2018 03:00:00 12,3 10,9 11,6 16,5 12,5 8 5 11 6 W 1012,3 3,7 0 0,0
22.05.2018 02:00:00 12,6 11,2 11,5 16,7 12,5 8 5 13 7 W 1012,4 3,7 0 0,0
22.05.2018 01:00:00 13,4 11,6 12,3 16,9 12,5 8 5 13 7 WNW 1012,5 7 0 0,0
22.05.2018 00:00:00 13,9 11,9 12,6 17,0 12,5 8 4 11 6 WNW 1012,6 12 0 0,0
21.05.2018 23:00:00 14,8 12,7 13,3 17,1 12,5 6 3 11 6 WNW 1012,9 15 0 0,0
21.05.2018 22:00:00 15,7 12,6 14,5 17,2 12,5 8 4 14 8 NNW 1012,6 19 12 0,0
21.05.2018 21:00:00 17,5 12,6 17,6 17,2 12,5 10 5 18 10 N 1012,4 20 60 0,0
21.05.2018 20:00:00 18,1 13,2 18,4 17,2 12,4 14 8 25 13 NNW 1012,3 20 51 0,0
21.05.2018 19:00:00 17,3 12,2 18,4 17,1 12,4 16 9 26 14 NNW 1012,3 20 12 0,0
21.05.2018 18:00:00 17,9 13,4 18,7 17,0 12,4 11 6 21 12 WNW 1012,4 18 0 0,0
21.05.2018 17:00:00 19,8 13,5 15,8 16,8 12,4 10 5 27 15 ENE 1012,3 19 12 0,6
21.05.2018 16:00:00 21,3 11,9 23,4 16,4 12,4 12 7 24 13 NE 1012,5 19 22 0,0
21.05.2018 15:00:00 21,4 12,8 24,3 16,0 12,4 12 6 32 18 NE 1013,0 20 28 0,0
21.05.2018 14:00:00 20,9 11,2 24,6 15,6 12,4 11 6 21 11 NE 1013,2 20 44 0,0
21.05.2018 13:00:00 20,5 10,9 23,3 15,3 12,4 10 5 26 14 E 1013,8 20 40 0,0
21.05.2018 12:00:00 20,0 10,7 22,9 15,0 12,4 9 5 24 13 ENE 1014,1 20 55 0,0
21.05.2018 11:00:00 19,2 11,7 21,3 14,9 12,4 15 8 27 15 ENE 1014,4 20 56 0,0
21.05.2018 10:00:00 17,8 12,5 15,3 14,8 12,4 14 8 26 14 ENE 1014,9 18 21 0,0
21.05.2018 09:00:00 14,0 11,2 13,3 14,9 12,4 11 6 17 9 NE 1015,4 10 0 0,0
21.05.2018 08:00:00 13,0 10,4 11,8 15,0 12,4 11 6 16 9 ENE 1015,7 8 0 0,0
21.05.2018 07:00:00 11,9 9,6 10,5 15,2 12,4 7 4 19 10 NE 1015,7 6 3 0,0
21.05.2018 06:00:00 11,0 9,1 9,8 15,4 12,4 7 4 16 8 ENE 1015,9 6 0 0,0
21.05.2018 05:00:00 11,1 9,0 10,0 15,5 12,4 12 7 21 11 NE 1016,0 6 0 0,0
21.05.2018 04:00:00 11,3 8,9 10,0 15,7 12,4 11 6 19 10 NE 1016,3 6 0 0,0
21.05.2018 03:00:00 11,5 9,2 10,1 15,9 12,4 11 6 18 10 ENE 1017,1 6 0 0,0
21.05.2018 02:00:00 11,5 9,2 10,6 16,1 12,4 15 8 22 12 NE 1017,4 4,9 0 0,0
21.05.2018 01:00:00 12,3 9,3 11,3 16,3 12,4 15 8 26 14 ENE 1017,9 6 0 0,0
21.05.2018 00:00:00 12,8 9,8 11,4 16,4 12,4 16 9 27 15 NE 1018,4 6 0 0,0
20.05.2018 23:00:00 13,6 10,0 12,6 16,6 12,4 16 9 27 15 NE 1018,7 7 0 0,0

tt = Température de l'air
td = dewpoint
tt 5cm = Température de l'air 5cm
tt -20cm = Température de l'air -20cm
tt -100cm = Température de l'air -100cm
ff = Vitesse du vent
fx = gusts
dd = Direction du vent
ppp = reduced air pressure
vv = visibility
sd = Ensoleillement
rr = Quantités de précipitations

stations d'obs. à proximité